Погода в Ладисполи

Италия     41°57′09″N   12°04′30″E
темп.,
°C
ветер,
м/с
пор.,
м/с
влажн.,
%
обл.,
%
осадки,
мм/ч
давл.,
гПа
погр.,
м
18 сентября, сб
сб1823:00+21юв23880 0.0 1013106
02:00+20в23933 0.0 1012126
05:00+20в359543 0.0 1013181
08:00+21в358385 0.1 1013218
11:00+26юв33590 0.0 10131038
14:00+26ю54600 0.0 1013803
17:00+25ююз33685 0.0 1012709
20:00+21ю1189100 0.0 101287
19 сентября, вс
вс1923:00+20всв119385 0.0 101352
02:00+20в119513 0.1 101385
05:00+20всв229628 0.1 1013105
08:00+21в359045 0.1 1013222
11:00+25ююз55693 0.0 1014934
14:00+25юз79684 0.1 10131162
17:00+24юз7127239 0.3 10121127
20:00+22зюз712670 0.3 1012786
20 сентября, пн
пн2023:00+21зюз69630 0.0 1013767
02:00+20з24800 0.0 1012154
05:00+17ссв11855 0.0 1012115
08:00+18всв24765 0.0 1013123
11:00+24ю335251 0.0 10121450
14:00+25ююз43511 0.1 10121364
17:00+24зюз33531 0.0 10131173
20:00+20юз12665 0.0 1014234
21 сентября, вт
вт2123:00+19в22725 0.0 1015143
02:00+18в36808 0.0 1016169
05:00+17всв348615 0.1 1016225
08:00+18в367812 0.1 1016194
11:00+23ююв666192 0.1 10171411
14:00+23ю5562100 0.8 10181218
17:00+23ююз3362100 0.1 10181058
20:00+20ю0179100 0.1 1019165
22 сентября, ср
ср2223:00+18ссв118576 0.0 101940
02:00+18св2281100 0.0 101940
05:00+17св2277100 0.0 101845
08:00+18св1269100 0.0 101869
11:00+24вюв1247100 0.0 1018633
14:00+25юз4249100 0.0 1017780
17:00+24зюз345490 0.0 1016471
20:00+20зсз117358 0.0 101688